Volver al catálogo

STARLINK-37209

ActivoComunicacionesVLEO
NORAD 69187·PAYLOAD·🇺🇸 United States

Lanzado May 25, 2026 desde Cape Canaveral Space Force Station

Loading…

Próximos Pases (próximas 24 horas)

TLE

ActualizadoSource: CelesTrak SupGP

Época: Sep 14, 2026, 21:04 UTC

1 69187C 26114F   26257.87826389 -.00000254  00000+0 -74945-5 0  2571
2 69187  53.1560 140.2388 0001322  83.8736 144.2142 15.34426664    12

Sigue STARLINK-37209 en tiempo real con AllMySat

Download on the App Store